K3BAK-13 Weather Reports


time (UTC)temp
C
wind
direction
speed
KPH
gust
KPH
rain 1hr
cm
rain 24hr
cm
rain mn
cm
humidity
%
barometer
mb
20260509213100 20 224 8.0 19.3 0.00 0.36 0.30 58 1008.5
20260509212600 20 219 4.8 24.1 0.00 0.36 0.30 57 1008.5
20260509212058 20 227 4.8 24.1 0.00 0.36 0.30 58 1008.5
20260509211558 20 342 8.0 24.1 0.00 0.36 0.30 58 1008.5
20260509211058 20 235 8.0 19.3 0.00 0.36 0.30 58 1008.5
20260509210559 20 256 6.4 19.3 0.00 0.36 0.30 59 1008.7
20260509210104 20 220 3.2 19.3 0.00 0.36 0.30 61 1008.5
20260509205557 19 161 4.8 19.3 0.00 0.36 0.30 63 1008.6
20260509205059 18 316 8.0 19.3 0.00 0.36 0.30 61 1008.9
20260509204607 19 241 6.4 14.5 0.00 0.36 0.30 62 1009.0
20260509204100 19 236 1.6 11.3 0.00 0.36 0.30 62 1009.0
20260509203600 19 217 3.2 11.3 0.00 0.36 0.30 64 1008.9
20260509203110 19 280 4.8 14.5 0.00 0.36 0.30 63 1008.9
20260509202559 19 333 4.8 14.5 0.00 0.36 0.30 63 1009.0
20260509202101 19 276 4.8 12.9 0.00 0.36 0.30 62 1009.1
20260509201557 18 69 3.2 14.5 0.00 0.36 0.30 62 1009.1
20260509201059 19 337 4.8 14.5 0.00 0.36 0.30 61 1009.2
20260509200559 19 233 8.0 14.5 0.00 0.36 0.30 63 1009.2
20260509200059 19 282 3.2 14.5 0.00 0.36 0.30 63 1009.2
20260509195601 18 256 1.6 19.3 0.00 0.36 0.30 66 1009.2
20260509195101 18 226 6.4 19.3 0.00 0.36 0.30 67 1009.4
20260509194601 18 226 6.4 19.3 0.00 0.36 0.30 66 1009.3
20260509194059 18 223 8.0 19.3 0.00 0.36 0.30 67 1009.4
20260509193600 17 231 6.4 19.3 0.00 0.36 0.30 67 1009.5
20260509193100 17 250 6.4 19.3 0.00 0.36 0.30 68 1009.6
20260509192559 17 231 8.0 20.9 0.00 0.36 0.30 70 1009.5
20260509192059 17 222 3.2 20.9 0.00 0.36 0.30 70 1009.5
20260509191559 17 211 4.8 19.3 0.00 0.36 0.30 70 1009.7
20260509191100 17 219 8.0 19.3 0.00 0.36 0.30 71 1009.8
20260509190559 16 243 4.8 27.4 0.00 0.36 0.30 72 1009.7
20260509190057 16 281 8.0 27.4 0.00 0.36 0.30 72 1009.9
20260509185559 16 314 4.8 16.1 0.00 0.36 0.30 73 1009.9
20260509185059 16 324 6.4 17.7 0.00 0.36 0.30 73 1009.9
20260509184601 16 178 6.4 19.3 0.00 0.36 0.30 73 1010.0
20260509184103 16 225 6.4 19.3 0.00 0.36 0.30 72 1009.9
20260509183600 16 226 9.7 17.7 0.00 0.36 0.30 74 1009.9
20260509183104 16 215 9.7 17.7 0.00 0.36 0.30 74 1010.0
20260509182558 15 234 6.4 14.5 0.00 0.36 0.30 75 1010.1
20260509182059 15 258 8.0 14.5 0.00 0.36 0.30 76 1010.1
20260509181611 15 301 4.8 11.3 0.00 0.36 0.30 77 1010.0
20260509181100 15 281 3.2 11.3 0.00 0.36 0.30 79 1010.2
20260509180600 15 228 3.2 14.5 0.00 0.36 0.30 79 1010.3
20260509180115 15 233 4.8 14.5 0.00 0.36 0.30 77 1010.1
20260509175559 15 203 4.8 11.3 0.00 0.36 0.30 80 1010.1
20260509175102 15 238 1.6 16.1 0.00 0.36 0.30 80 1010.2
20260509174558 15 234 3.2 16.1 0.00 0.36 0.30 79 1010.2
20260509174101 15 263 8.0 16.1 0.00 0.36 0.30 79 1010.3
20260509173600 15 248 1.6 20.9 0.00 0.36 0.30 81 1010.2
20260509173111 14 213 3.2 20.9 0.00 0.36 0.30 81 1010.2
20260509172559 14 236 8.0 20.9 0.00 0.36 0.30 81 1010.3
20260509172059 14 271 4.8 16.1 0.00 0.36 0.30 82 1010.3
20260509171600 14 257 4.8 16.1 0.00 0.36 0.30 81 1010.3
20260509171059 15 195 6.4 16.1 0.00 0.36 0.30 82 1010.3
20260509170559 15 257 6.4 16.1 0.00 0.36 0.30 82 1010.0
20260509170546 14 289 8.0 19.3 0.00 0.36 0.30 81 1010.1
20260509165058 14 239 6.4 19.3 0.00 0.36 0.30 84 1010.1
20260509164557 14 212 4.8 19.3 0.00 0.36 0.30 87 1010.0
20260509164059 13 345 4.8 14.5 0.00 0.36 0.30 87 1010.0
20260509163600 13 167 6.4 14.5 0.00 0.36 0.30 89 1009.9
20260509163101 13 246 4.8 11.3 0.00 0.36 0.30 89 1009.9
20260509162559 13 211 3.2 11.3 0.00 0.36 0.30 91 1009.9
20260509162059 12 287 4.8 11.3 0.00 0.36 0.30 91 1009.9
20260509161604 12 221 3.2 9.7 0.03 0.36 0.30 91 1009.9
20260509161059 12 229 3.2 11.3 0.03 0.36 0.30 92 1009.9
20260509160559 12 7 3.2 11.3 0.03 0.36 0.30 93 1010.0
20260509160059 12 222 4.8 8.0 0.03 0.36 0.30 93 1010.0
20260509155558 11 214 1.6 8.0 0.03 0.36 0.30 93 1010.0
20260509155058 11 250 1.6 8.0 0.03 0.36 0.30 93 1009.9
20260509154612 11 211 0.0 4.8 0.03 0.36 0.30 93 1009.9
20260509154059 11 248 0.0 4.8 0.03 0.36 0.30 94 1010.0
20260509153601 11 231 1.6 4.8 0.03 0.36 0.30 94 1010.1
20260509153109 11 215 1.6 4.8 0.05 0.36 0.30 94 1009.9
20260509152600 11 242 1.6 6.4 0.05 0.36 0.30 93 1010.0
20260509152100 11 0 0.0 6.4 0.05 0.36 0.30 94 1010.0
20260509151609 11 318 0.0 6.4 0.05 0.33 0.28 94 1009.7
20260509151059 11 316 1.6 6.4 0.05 0.33 0.28 93 1009.7
20260509150602 11 200 0.0 6.4 0.05 0.33 0.28 93 1009.7
20260509150058 11 220 1.6 11.3 0.05 0.33 0.28 93 1009.6
20260509145559 11 191 3.2 11.3 0.05 0.33 0.28 93 1009.7
20260509145058 11 218 1.6 9.7 0.05 0.33 0.28 93 1009.8
20260509144602 11 233 3.2 9.7 0.05 0.33 0.28 93 1009.9
20260509144059 11 0 3.2 9.7 0.05 0.33 0.28 93 1009.9
20260509143600 11 229 3.2 12.9 0.05 0.33 0.28 93 1009.9
20260509143108 11 224 3.2 12.9 0.03 0.30 0.25 93 1009.8
20260509142558 11 224 4.8 9.7 0.03 0.30 0.25 93 1009.9
20260509142059 11 211 3.2 9.7 0.03 0.30 0.25 93 1009.9
20260509141602 11 227 3.2 12.9 0.00 0.28 0.23 93 1009.9
20260509141059 11 249 4.8 12.9 0.00 0.28 0.23 93 1009.9
20260509140559 11 224 3.2 14.5 0.03 0.28 0.23 93 1009.9
20260509135602 11 240 3.2 16.1 0.03 0.28 0.23 93 1010.0
20260509135059 11 285 3.2 16.1 0.03 0.28 0.23 93 1010.0
20260509134600 11 256 6.4 16.1 0.03 0.28 0.23 93 1009.9
20260509134059 11 238 6.4 11.3 0.03 0.28 0.23 93 1010.1
20260509133559 11 214 3.2 8.0 0.03 0.28 0.23 93 1010.1
20260509133109 11 240 1.6 6.4 0.03 0.28 0.23 94 1010.1
20260509132559 11 245 3.2 6.4 0.03 0.28 0.23 93 1010.1
20260509132058 11 218 3.2 8.0 0.03 0.28 0.23 93 1010.2
20260509131559 11 222 3.2 16.1 0.05 0.28 0.23 93 1010.1
20260509131058 11 243 3.2 16.1 0.05 0.28 0.23 93 1010.2
20260509130601 10 248 1.6 9.7 0.05 0.25 0.20 93 1010.2
20260509130115 10 224 1.6 6.4 0.05 0.25 0.20 93 1010.3
20260509125601 10 228 0.0 6.4 0.05 0.25 0.20 93 1010.3
20260509125058 10 165 1.6 6.4 0.08 0.25 0.20 93 1010.3
20260509124600 10 219 1.6 6.4 0.08 0.25 0.20 93 1010.2
20260509124059 10 216 1.6 6.4 0.08 0.25 0.20 93 1010.3
20260509123601 10 210 3.2 8.0 0.08 0.25 0.20 93 1010.3
20260509123100 10 217 3.2 11.3 0.10 0.25 0.20 93 1010.3
20260509122600 10 237 3.2 11.3 0.10 0.25 0.20 93 1010.4
20260509122059 10 236 3.2 6.4 0.10 0.25 0.20 93 1010.4
20260509121558 10 258 3.2 6.4 0.08 0.23 0.18 93 1010.4
20260509121100 10 239 3.2 6.4 0.10 0.23 0.18 93 1010.3
20260509120559 10 233 1.6 11.3 0.10 0.20 0.15 93 1010.4
20260509120101 10 215 1.6 11.3 0.10 0.20 0.15 93 1010.4
20260509115600 10 223 3.2 11.3 0.10 0.20 0.15 92 1010.4
20260509115058 10 233 3.2 6.4 0.08 0.18 0.13 92 1010.4
20260509114601 10 176 1.6 6.4 0.08 0.18 0.13 92 1010.4
20260509114101 10 229 1.6 8.0 0.08 0.18 0.13 92 1010.2
20260509113602 10 257 3.2 8.0 0.08 0.18 0.13 92 1010.3
20260509113101 10 266 3.2 8.0 0.05 0.15 0.10 92 1010.2
20260509112559 10 214 3.2 9.7 0.05 0.15 0.10 91 1010.2
20260509112059 10 214 3.2 9.7 0.05 0.15 0.10 91 1010.1
20260509111610 10 210 3.2 17.7 0.05 0.15 0.10 91 1010.1
20260509111059 10 235 4.8 17.7 0.03 0.13 0.08 90 1010.1
20260509110559 10 243 4.8 17.7 0.00 0.10 0.05 89 1010.1
20260509110101 11 243 4.8 12.9 0.00 0.10 0.05 89 1010.0
20260509105600 11 124 6.4 16.1 0.00 0.10 0.05 89 1010.0
20260509105059 11 228 6.4 16.1 0.03 0.10 0.05 88 1010.0
20260509104610 11 229 6.4 17.7 0.03 0.10 0.05 88 1010.1
20260509104108 11 223 8.0 17.7 0.03 0.10 0.05 88 1010.0
20260509103558 11 292 4.8 17.7 0.03 0.10 0.05 88 1010.0
20260509103111 10 255 4.8 17.7 0.03 0.10 0.05 89 1009.9
20260509102559 10 230 4.8 16.1 0.03 0.10 0.05 88 1010.0
20260509102059 10 226 4.8 17.7 0.03 0.10 0.05 89 1010.0
20260509101559 10 250 6.4 17.7 0.03 0.10 0.05 88 1010.1
20260509101058 10 251 6.4 17.7 0.03 0.10 0.05 88 1010.1
20260509100559 10 188 4.8 12.9 0.03 0.10 0.05 88 1010.0
20260509100059 10 198 3.2 12.9 0.03 0.10 0.05 88 1010.1
20260509095559 10 228 4.8 12.9 0.03 0.10 0.05 88 1010.0
20260509095059 11 183 4.8 11.3 0.03 0.08 0.03 88 1010.0
20260509094600 10 245 1.6 9.7 0.03 0.08 0.03 88 1010.1
20260509094059 11 250 3.2 9.7 0.03 0.08 0.03 88 1010.2
20260509093559 11 233 3.2 8.0 0.03 0.08 0.03 88 1010.1
20260509093102 11 217 3.2 11.3 0.03 0.08 0.03 87 1010.1
20260509092558 11 234 3.2 11.3 0.03 0.08 0.03 87 1010.1
20260509092058 10 186 3.2 6.4 0.03 0.08 0.03 87 1010.3
20260509091601 10 226 1.6 6.4 0.03 0.08 0.03 88 1010.3
20260509091059 10 221 1.6 6.4 0.03 0.08 0.03 88 1010.3
20260509090559 10 165 0.0 4.8 0.03 0.08 0.03 89 1010.3
20260509090107 10 211 1.6 6.4 0.03 0.08 0.03 89 1010.3
20260509085558 10 231 1.6 6.4 0.03 0.08 0.03 91 1010.4
20260509085058 10 212 1.6 3.2 0.00 0.05 0.00 92 1010.4
20260509084609 10 0 0.0 3.2 0.00 0.05 0.00 93 1010.4
20260509084058 10 241 0.0 1.6 0.00 0.05 0.00 94 1010.4
20260509083559 10 166 0.0 1.6 0.00 0.05 0.00 94 1010.4
20260509083108 10 0 0.0 0.0 0.00 0.05 0.00 94 1010.4
20260509082559 10 0 0.0 0.0 0.00 0.05 0.00 94 1010.4
20260509082059 10 0 0.0 0.0 0.00 0.05 0.00 94 1010.5
20260509081605 10 0 0.0 0.0 0.00 0.05 0.00 94 1010.4
20260509081059 10 0 0.0 0.0 0.00 0.05 0.00 94 1010.4
20260509080558 9 0 0.0 0.0 0.00 0.05 0.00 94 1010.4
20260509075558 9 0 0.0 0.0 0.00 0.05 0.00 94 1010.1
20260509075058 9 0 0.0 0.0 0.00 0.05 0.00 94 1010.1
20260509074604 9 0 0.0 0.0 0.00 0.05 0.00 94 1010.2
20260509074058 9 0 0.0 0.0 0.00 0.05 0.00 94 1010.3
20260509073558 9 0 0.0 0.0 0.00 0.05 0.00 94 1010.3
20260509073101 9 0 0.0 0.0 0.00 0.05 0.00 94 1010.2
20260509072559 9 0 0.0 0.0 0.00 0.05 0.00 94 1010.2
20260509072058 9 0 0.0 0.0 0.00 0.05 0.00 93 1010.0
20260509071602 9 0 0.0 0.0 0.00 0.05 0.00 94 1009.9
20260509071059 9 0 0.0 0.0 0.00 0.05 0.00 94 1009.7
20260509070559 9 0 0.0 0.0 0.00 0.05 0.00 93 1009.8
20260509070106 9 0 0.0 0.0 0.00 0.05 0.00 93 1009.9
20260509065600 10 0 0.0 0.0 0.00 0.05 0.00 94 1009.8
20260509065058 10 0 0.0 0.0 0.00 0.05 0.00 94 1009.9
20260509064603 10 0 0.0 0.0 0.00 0.05 0.00 94 1010.0
20260509064102 10 0 0.0 0.0 0.00 0.05 0.00 94 1010.1
20260509063601 10 0 0.0 0.0 0.00 0.05 0.00 94 1010.1
20260509063112 10 0 0.0 0.0 0.00 0.05 0.00 94 1010.3
20260509062558 10 0 0.0 0.0 0.00 0.05 0.00 95 1010.3
20260509062058 10 0 0.0 0.0 0.00 0.05 0.00 95 1010.5
20260509061619 10 0 0.0 0.0 0.00 0.05 0.00 95 1010.6
20260509061058 10 0 0.0 0.0 0.00 0.05 0.00 95 1010.7
20260509060559 10 0 0.0 0.0 0.00 0.05 0.00 95 1010.7
20260509060113 10 0 0.0 0.0 0.00 0.05 0.00 95 1010.8
20260509055558 10 0 0.0 0.0 0.00 0.05 0.00 94 1010.7
20260509055058 10 0 0.0 0.0 0.00 0.05 0.00 94 1010.8
20260509054600 10 0 0.0 0.0 0.00 0.05 0.00 95 1010.7
20260509054058 10 0 0.0 0.0 0.00 0.05 0.00 94 1010.8
20260509053600 10 0 0.0 0.0 0.00 0.05 0.00 94 1010.9
20260509053059 10 0 0.0 0.0 0.00 0.05 0.00 94 1011.0
20260509052559 10 0 0.0 0.0 0.00 0.05 0.00 94 1011.1
20260509052101 10 0 0.0 0.0 0.00 0.05 0.00 94 1011.2
20260509051602 10 0 0.0 0.0 0.00 0.05 0.00 94 1011.3
20260509051058 10 0 0.0 0.0 0.00 0.05 0.00 94 1011.2
20260509050558 10 0 0.0 0.0 0.00 0.05 0.00 94 1011.2
20260509050101 10 0 0.0 0.0 0.00 0.05 0.00 94 1011.2
20260509045600 10 0 0.0 0.0 0.00 0.05 0.00 94 1011.2
20260509045100 10 0 0.0 0.0 0.00 0.05 0.00 94 1011.2
20260509044601 10 0 0.0 0.0 0.00 0.05 0.00 93 1011.2
20260509044100 10 0 0.0 0.0 0.00 0.05 0.00 93 1011.2
20260509043559 10 0 0.0 0.0 0.00 0.05 0.00 93 1011.3
20260509043100 10 0 0.0 0.0 0.00 0.05 0.00 93 1011.4
20260509042558 10 0 0.0 0.0 0.00 0.05 0.00 93 1011.4
20260509042102 10 0 0.0 0.0 0.00 0.05 0.00 93 1011.4
20260509041601 10 0 0.0 0.0 0.00 0.05 0.00 93 1011.5
20260509041059 10 0 0.0 0.0 0.00 0.05 0.00 93 1011.5
20260509040558 10 0 0.0 0.0 0.00 0.05 0.00 92 1011.7
20260509035559 10 0 0.0 0.0 0.00 0.05 0.05 92 1011.8
20260509035059 10 0 0.0 0.0 0.00 0.05 0.05 92 1012.0
20260509034602 10 0 0.0 0.0 0.00 0.05 0.05 92 1012.1
20260509034058 10 0 0.0 0.0 0.00 0.05 0.05 92 1012.1
20260509033559 10 0 0.0 0.0 0.03 0.05 0.05 91 1012.3
20260509033058 10 0 0.0 0.0 0.03 0.05 0.05 91 1012.4
20260509032559 10 0 0.0 0.0 0.03 0.05 0.05 91 1012.5
20260509032059 10 0 0.0 0.0 0.03 0.05 0.05 91 1012.6
20260509031601 10 0 0.0 0.0 0.03 0.05 0.05 91 1012.6
20260509031100 10 0 0.0 0.0 0.03 0.05 0.05 91 1012.7
20260509030600 10 0 0.0 0.0 0.03 0.05 0.05 91 1012.8
20260509030100 10 0 0.0 0.0 0.03 0.05 0.05 90 1012.9
20260509025558 10 0 0.0 0.0 0.05 0.05 0.05 90 1013.0
20260509025102 10 0 0.0 0.0 0.05 0.05 0.05 90 1013.0
20260509024603 10 0 0.0 0.0 0.05 0.05 0.05 90 1013.1
20260509024058 10 0 0.0 0.0 0.05 0.05 0.05 90 1013.1
20260509023559 10 0 0.0 0.0 0.03 0.03 0.03 89 1013.1
20260509023103 11 0 0.0 0.0 0.03 0.03 0.03 88 1013.2
20260509022559 11 0 0.0 0.0 0.03 0.03 0.03 87 1013.2
20260509022058 11 0 0.0 0.0 0.03 0.03 0.03 87 1013.3
20260509021600 11 0 0.0 0.0 0.03 0.03 0.03 86 1013.2
20260509021057 11 0 0.0 0.0 0.03 0.03 0.03 86 1012.9
20260509020558 11 0 0.0 0.0 0.03 0.03 0.03 84 1012.9
20260509015600 11 0 0.0 0.0 0.00 0.00 0.00 84 1012.8
20260509015101 11 0 0.0 0.0 0.00 0.00 0.00 83 1012.6
20260509014559 11 0 0.0 0.0 0.00 0.00 0.00 82 1012.6
20260509014101 11 0 0.0 0.0 0.00 0.00 0.00 81 1012.5
20260509013558 11 0 0.0 0.0 0.00 0.00 0.00 82 1012.3
20260509013101 11 0 0.0 0.0 0.00 0.00 0.00 80 1012.3
20260509012559 11 0 0.0 0.0 0.00 0.00 0.00 80 1012.1
20260509012059 11 0 0.0 0.0 0.00 0.00 0.00 80 1012.0
20260509011559 11 0 0.0 0.0 0.00 0.00 0.00 80 1011.9
20260509011059 11 0 0.0 0.0 0.00 0.00 0.00 79 1011.8
20260509010558 12 0 0.0 0.0 0.00 0.00 0.00 79 1011.7
20260509010059 12 0 0.0 0.0 0.00 0.00 0.00 78 1011.6
20260509005559 12 0 0.0 0.0 0.00 0.00 0.00 77 1011.5
20260509005058 12 0 0.0 0.0 0.00 0.00 0.00 76 1011.4
20260509004608 12 0 0.0 0.0 0.00 0.00 0.00 76 1011.4
20260509004058 12 0 0.0 0.0 0.00 0.00 0.00 74 1011.3
20260509003602 12 0 0.0 0.0 0.00 0.00 0.00 75 1011.3
20260509003059 12 0 0.0 0.0 0.00 0.00 0.00 74 1011.3
20260509002559 12 0 0.0 0.0 0.00 0.00 0.00 74 1011.3
20260509002058 12 0 0.0 0.0 0.00 0.00 0.00 74 1011.3
20260509001559 12 0 0.0 0.0 0.00 0.00 0.00 73 1011.3
20260509001058 12 0 0.0 0.0 0.00 0.00 0.00 73 1011.4
20260509000558 12 0 0.0 0.0 0.00 0.00 0.00 72 1011.2
20260509000057 12 0 0.0 0.0 0.00 0.00 0.00 72 1011.1
20260508235559 13 0 0.0 0.0 0.00 0.00 0.00 72 1011.1
20260508235057 13 0 0.0 0.0 0.00 0.00 0.00 71 1011.1
20260508234559 13 0 0.0 0.0 0.00 0.00 0.00 71 1011.4
20260508234057 13 0 0.0 0.0 0.00 0.00 0.00 71 1011.5
20260508233558 13 0 0.0 0.0 0.00 0.00 0.00 70 1011.5
20260508233100 13 0 0.0 0.0 0.00 0.00 0.00 70 1011.4
20260508232559 13 0 0.0 0.0 0.00 0.00 0.00 71 1011.5
20260508232058 13 0 0.0 0.0 0.00 0.00 0.00 70 1011.5
20260508231605 13 0 0.0 0.0 0.00 0.00 0.00 69 1011.3
20260508231059 13 0 0.0 0.0 0.00 0.00 0.00 68 1011.6
20260508230600 13 0 0.0 0.0 0.00 0.00 0.00 67 1011.6
20260508230100 13 0 0.0 0.0 0.00 0.00 0.00 66 1011.7
20260508225558 13 0 0.0 0.0 0.00 0.00 0.00 65 1011.7
20260508225058 13 0 0.0 0.0 0.00 0.00 0.00 65 1011.6
20260508224605 13 0 0.0 0.0 0.00 0.00 0.00 65 1011.6
20260508224058 13 0 0.0 1.6 0.00 0.00 0.00 65 1011.7
20260508223558 13 0 0.0 3.2 0.00 0.00 0.00 66 1011.7
20260508223058 13 0 1.6 3.2 0.00 0.00 0.00 65 1011.7
20260508222557 13 231 0.0 3.2 0.00 0.00 0.00 64 1011.6
20260508222057 13 0 0.0 1.6 0.00 0.00 0.00 65 1011.6
20260508221614 13 0 0.0 1.6 0.00 0.00 0.00 63 1011.6
20260508221058 13 0 0.0 1.6 0.00 0.00 0.00 64 1011.6
20260508220558 14 0 0.0 1.6 0.00 0.00 0.00 62 1011.6
20260508215557 13 226 0.0 3.2 0.00 0.00 0.00 61 1011.6
20260508215058 14 0 0.0 3.2 0.00 0.00 0.00 62 1011.7
20260508214601 14 63 0.0 3.2 0.00 0.00 0.00 62 1011.7
20260508214058 14 226 0.0 3.2 0.00 0.00 0.00 63 1011.7
20260508213558 14 237 0.0 3.2 0.00 0.00 0.00 61 1011.8